SCOUT X-4 DEB, 805

Orbit data source: Space-Track

SCOUT X-4 DEB, 805 is space debris in LEO originally from a launch on Thu, 04 Jun 1964 UTC launched from the Air Force Western Test Range (AFWTR). Debris objects in space refer to the collection of defunct objects orbiting the Earth. Examples of debris include non-operational satellites, rocket bodies, and fragments generated from explosions, collisions, or faulty payload assembly.

Loading next visibility...
Identifier
805, 1964-026B
Orbit
LEO
Country
Flag of USUS
Related business
Manufacturer
Unknown
Mission
Spacecraft
Bus & Motor
Unknown
Mass
Unknown
Launch date (UTC)
1964-06-04 (62 years ago)
Launch vehicle
Unknown
Launch site
Air Force Western Test Range (AFWTR)
Object type
Payload
Rocket body
Debris
Shape & HBR
Unknown shape, 0.1 m
Radar Cross Section
Small (<0.1 m²)

Expand to show TLE details & history
Last TLE update: 2 days ago

TLE from 2 days ago
0 SCOUT X-4 DEB
1 00805U 64026B   26104.62818089  .00000912  00000-0  30886-3 0  9996
2 00805  89.8568 329.9580 0031105  42.1850 318.1734 14.35871479180910
Epoch: 2026-04-14T15:04Z
TLE epoch observation values (Epoch: 2026-04-14T15:04:34.828Z)
Latitude
-0.00009°
Longitude
-98.98882°
Altitude
758.703 km
Speed
7.484 km/s
True Right ascension
21h 59m 49s
True Declination
0° 00' 00"
Sunlit
Object was in daylight at epoch
Visualization orbit readout
Latitude
Unknown
Longitude
Unknown
Altitude
Unknown
Speed
Unknown
Apparent Right ascension
Unknown
Apparent Declination
Unknown
Sunlit
N/A
Visualization observer readout
Local Sidereal Time
14:16:23
Azimuth
Unknown
Elevation
Unknown
Doppler factor
Unknown
Orbital elements
Apogee altitude
791.329 km
Perigee altitude
746.866 km
Semi-major axis
7,147.234 km
Eccentricity
0.00311
Inclination
89.8568°
RAAN
329.958°
Arg. of periapsis
42.185°
True anomaly
317.93501°
Mean anomaly
318.1734°
Eccentric anomaly
318.05427°
Mean motion
3.592 °/min
Orbital period
100.22 mins
BSTAR
0.00030886
Loading maneuver chart data...
Computing Atmospheric mass density...
Loading historical data...
Loading historical data...
Loading historical data...
Loading historical data...
Loading historical data...
Loading historical data...
Loading historical data...

Documentation

Showing up to 5 results
|